• în România
  • Lista ţărilor
  • Pe 7 zile
  • Temperatura apei
  • Hartă satelitară
  • Meteo pe hartă
  • Widget-uri
  • user-avatar
    Intrare

    Meteo pe oră la Bregenz

    Astăzi, 18 Noiembrie, Sâmbătă

    Timp Temperatura Precipitaţii Vânt Presiune Umiditate
    00:00 -4°C° 0 mm 1 m/s 646 mmHg 90%
    01:00 -6°C° 0 mm 1 m/s 646 mmHg 92%
    02:00 -4°C° 0 mm 1 m/s 646 mmHg 91%
    03:00 -4°C° 0 mm 1 m/s 646 mmHg 91%
    04:00 -4°C° 0 mm 1 m/s 646 mmHg 91%
    05:00 -4°C° 0 mm 1 m/s 646 mmHg 90%
    06:00 -4°C° 0 mm 1 m/s 646 mmHg 90%
    07:00 -3°C° 0 mm 1 m/s 646 mmHg 91%
    08:00 -2°C° 0 mm 1 m/s 646 mmHg 88%
    09:00 -1°C° 0 mm 1 m/s 646 mmHg 85%
    10:00 0°C° 0 mm 1 m/s 647 mmHg 82%
    11:00 +1°C° 0 mm 1 m/s 647 mmHg 79%
    12:00 +2°C° 0 mm 1 m/s 647 mmHg 76%
    13:00 +1°C° 0 mm 2 m/s 646 mmHg 76%
    14:00 -1°C° 0 mm 2 m/s 646 mmHg 80%
    15:00 -2°C° 0 mm 2 m/s 646 mmHg 84%
    16:00 -3°C° 0 mm 2 m/s 646 mmHg 88%
    17:00 -4°C° 0 mm 2 m/s 646 mmHg 88%
    18:00 -5°C° 0 mm 2 m/s 646 mmHg 89%
    19:00 -6°C° 0 mm 2 m/s 645 mmHg 89%
    20:00 -6°C° 0 mm 2 m/s 645 mmHg 88%
    21:00 -7°C° 0 mm 2 m/s 645 mmHg 86%
    22:00 -7°C° 0 mm 2 m/s 645 mmHg 85%
    23:00 -7°C° 0 mm 2 m/s 645 mmHg 82%

    Mâine, 19 Noiembrie, Duminică

    Timp Temperatura Precipitaţii Vânt Presiune Umiditate
    00:00 -6°C° 0 mm 2 m/s 645 mmHg 80%
    01:00 -6°C° 0 mm 2 m/s 644 mmHg 77%
    02:00 -6°C° 0,2 mm 2 m/s 644 mmHg 75%
    03:00 -6°C° 0,2 mm 3 m/s 643 mmHg 74%
    04:00 -6°C° 0,2 mm 3 m/s 643 mmHg 72%
    05:00 -5°C° 1 mm 3 m/s 643 mmHg 78%
    06:00 -5°C° 1 mm 3 m/s 643 mmHg 84%
    07:00 -5°C° 1 mm 3 m/s 643 mmHg 91%
    08:00 -5°C° 1,1 mm 3 m/s 643 mmHg 91%
    09:00 -5°C° 1,1 mm 3 m/s 643 mmHg 92%
    10:00 -4°C° 1,1 mm 3 m/s 644 mmHg 93%
    11:00 -4°C° 0,4 mm 3 m/s 644 mmHg 93%
    12:00 -3°C° 0,4 mm 4 m/s 644 mmHg 92%
    13:00 -3°C° 0,4 mm 4 m/s 644 mmHg 92%
    14:00 -3°C° 0,3 mm 4 m/s 644 mmHg 92%
    15:00 -4°C° 0,3 mm 3 m/s 645 mmHg 92%
    16:00 -4°C° 0,3 mm 3 m/s 645 mmHg 93%
    17:00 -5°C° 0,2 mm 3 m/s 645 mmHg 94%
    18:00 -5°C° 0,2 mm 3 m/s 645 mmHg 95%
    19:00 -5°C° 0,2 mm 2 m/s 646 mmHg 95%
    20:00 -5°C° 0,1 mm 2 m/s 646 mmHg 95%
    21:00 -6°C° 0,1 mm 2 m/s 647 mmHg 95%
    22:00 -6°C° 0,1 mm 2 m/s 647 mmHg 95%
    23:00 -7°C° 0 mm 2 m/s 647 mmHg 95%

    Poimâine, 20 Noiembrie, Luni

    Timp Temperatura Precipitaţii Vânt Presiune Umiditate
    00:00 -7°C° 0 mm 2 m/s 647 mmHg 94%
    01:00 -8°C° 0 mm 2 m/s 647 mmHg 94%
    02:00 -8°C° 0 mm 2 m/s 647 mmHg 92%
    03:00 -9°C° 0 mm 2 m/s 647 mmHg 90%
    04:00 -9°C° 0 mm 2 m/s 646 mmHg 89%
    05:00 -9°C° 0 mm 2 m/s 647 mmHg 87%
    06:00 -9°C° 0 mm 2 m/s 647 mmHg 84%
    07:00 -9°C° 0 mm 2 m/s 647 mmHg 82%
    08:00 -7°C° 0 mm 2 m/s 647 mmHg 80%
    09:00 -5°C° 0 mm 2 m/s 647 mmHg 78%
    10:00 -1°C° 0 mm 1 m/s 648 mmHg 75%
    11:00 0°C° 0 mm 1 m/s 648 mmHg 75%
    12:00 +1°C° 0 mm 1 m/s 647 mmHg 75%
    13:00 +2°C° 0 mm 1 m/s 647 mmHg 75%
    14:00 +1°C° 0 mm 1 m/s 647 mmHg 77%
    15:00 +1°C° 0 mm 1 m/s 646 mmHg 79%
    16:00 0°C° 0 mm 1 m/s 646 mmHg 81%
    17:00 -3°C° 0 mm 2 m/s 646 mmHg 80%
    18:00 -3°C° 0 mm 2 m/s 646 mmHg 79%
    19:00 -4°C° 0 mm 2 m/s 646 mmHg 78%
    20:00 -4°C° 0 mm 2 m/s 646 mmHg 78%
    21:00 -4°C° 0 mm 2 m/s 646 mmHg 78%
    22:00 -4°C° 0 mm 2 m/s 646 mmHg 78%
    23:00 -4°C° 0 mm 2 m/s 646 mmHg 79%

    21 Noiembrie, Marţi

    Timp Temperatura Precipitaţii Vânt Presiune Umiditate
    00:00 -4°C° 0 mm 2 m/s 646 mmHg 79%
    01:00 -4°C° 0 mm 2 m/s 646 mmHg 80%
    02:00 -4°C° 0,1 mm 2 m/s 646 mmHg 80%
    03:00 -3°C° 0,1 mm 2 m/s 646 mmHg 81%
    04:00 -3°C° 0,1 mm 2 m/s 646 mmHg 82%
    05:00 -3°C° 0 mm 2 m/s 646 mmHg 82%
    06:00 -3°C° 0 mm 2 m/s 646 mmHg 83%
    07:00 -3°C° 0 mm 2 m/s 646 mmHg 84%
    08:00 -2°C° 0 mm 2 m/s 646 mmHg 83%
    09:00 -1°C° 0 mm 2 m/s 646 mmHg 83%
    10:00 +1°C° 0 mm 2 m/s 646 mmHg 83%
    11:00 +2°C° 0 mm 2 m/s 646 mmHg 83%
    12:00 +3°C° 0 mm 2 m/s 647 mmHg 84%
    13:00 +5°C° 0 mm 2 m/s 647 mmHg 85%
    14:00 +4°C° 0 mm 2 m/s 646 mmHg 84%
    15:00 +4°C° 0 mm 1 m/s 646 mmHg 84%
    16:00 +3°C° 0 mm 1 m/s 646 mmHg 83%
    17:00 +1°C° 0 mm 2 m/s 646 mmHg 82%
    18:00 -1°C° 0 mm 2 m/s 645 mmHg 81%
    19:00 -2°C° 0 mm 2 m/s 645 mmHg 79%
    20:00 -2°C° 0 mm 2 m/s 645 mmHg 78%
    21:00 -2°C° 0 mm 2 m/s 645 mmHg 77%
    22:00 -2°C° 0 mm 2 m/s 645 mmHg 76%
    23:00 -2°C° 0 mm 2 m/s 645 mmHg 76%

    22 Noiembrie, Miercuri

    Timp Temperatura Precipitaţii Vânt Presiune Umiditate
    00:00 -2°C° 0 mm 2 m/s 645 mmHg 75%
    01:00 -3°C° 0 mm 2 m/s 645 mmHg 74%
    02:00 -3°C° 0 mm 2 m/s 645 mmHg 73%
    03:00 -3°C° 0 mm 2 m/s 645 mmHg 72%
    04:00 -3°C° 0 mm 2 m/s 645 mmHg 72%
    05:00 -3°C° 0 mm 2 m/s 645 mmHg 71%
    06:00 -3°C° 0 mm 2 m/s 645 mmHg 70%
    07:00 -3°C° 0 mm 2 m/s 645 mmHg 69%
    08:00 -2°C° 0 mm 2 m/s 645 mmHg 70%
    09:00 +1°C° 0 mm 2 m/s 645 mmHg 70%
    10:00 +2°C° 0 mm 2 m/s 646 mmHg 70%
    11:00 +5°C° 0 mm 1 m/s 646 mmHg 72%
    12:00 +6°C° 0 mm 1 m/s 646 mmHg 74%
    13:00 +7°C° 0 mm 1 m/s 646 mmHg 76%
    14:00 +6°C° 0 mm 1 m/s 645 mmHg 76%
    15:00 +5°C° 0 mm 1 m/s 645 mmHg 76%
    16:00 +4°C° 0 mm 1 m/s 645 mmHg 76%
    17:00 +2°C° 0 mm 2 m/s 645 mmHg 75%
    18:00 +1°C° 0 mm 2 m/s 644 mmHg 75%
    19:00 -1°C° 0 mm 2 m/s 644 mmHg 75%
    20:00 -2°C° 0 mm 2 m/s 644 mmHg 74%
    21:00 -2°C° 0 mm 2 m/s 644 mmHg 74%
    22:00 -2°C° 0 mm 2 m/s 644 mmHg 74%
    23:00 -2°C° 0 mm 2 m/s 644 mmHg 74%

    23 Noiembrie, Joi

    Timp Temperatura Precipitaţii Vânt Presiune Umiditate
    00:00 -2°C° 0 mm 2 m/s 645 mmHg 74%
    01:00 -2°C° 0 mm 2 m/s 645 mmHg 74%
    02:00 -2°C° 0 mm 2 m/s 645 mmHg 74%
    03:00 -2°C° 0 mm 2 m/s 644 mmHg 74%
    04:00 -3°C° 0 mm 2 m/s 644 mmHg 74%
    05:00 -3°C° 0 mm 2 m/s 645 mmHg 74%
    06:00 -3°C° 0 mm 2 m/s 645 mmHg 74%
    07:00 -3°C° 0 mm 2 m/s 645 mmHg 73%
    08:00 -1°C° 0 mm 2 m/s 646 mmHg 73%
    09:00 +1°C° 0 mm 2 m/s 646 mmHg 72%
    10:00 +3°C° 0 mm 2 m/s 647 mmHg 72%
    11:00 +4°C° 0 mm 2 m/s 647 mmHg 73%
    12:00 +6°C° 0 mm 1 m/s 647 mmHg 74%
    13:00 +7°C° 0 mm 1 m/s 648 mmHg 75%
    14:00 +6°C° 0 mm 1 m/s 648 mmHg 76%
    15:00 +5°C° 0 mm 1 m/s 647 mmHg 78%
    16:00 +4°C° 0 mm 1 m/s 647 mmHg 79%
    17:00 +3°C° 0 mm 1 m/s 647 mmHg 79%
    18:00 +1°C° 0 mm 2 m/s 647 mmHg 78%
    19:00 -1°C° 0 mm 2 m/s 648 mmHg 78%
    20:00 -1°C° 0 mm 2 m/s 648 mmHg 77%
    21:00 -1°C° 0 mm 2 m/s 648 mmHg 76%
    22:00 -1°C° 0 mm 2 m/s 648 mmHg 75%
    23:00 -2°C° 0 mm 2 m/s 648 mmHg 74%
    Arată mai mult